Location: Unspecified
(0.0000°N, 0.0000°E)
Time: 16:16:07
(UTC+00:00)

Courier 1B Rocket - Pass Details

Date: 25 November 2019
Orbit: 920 x 1202 km, 28.2° (Epoch: 12 December)

Event Time Altitude Azimuth Distance (km) Brightness Sun altitude
Rises 19:42:26 0° 305° (NW) 3,996 8.6 -26.8°
Reaches altitude 10° 19:45:13 10° 307° (NW) 3,065 7.9 -27.5°
Maximum altitude 19:52:53 71° 30° (NNE) 1,254 5.3 -29.2°
Enters shadow 19:53:20 69° 54° (NE) 1,266 5.2 -29.3°
